Location: Perryvale
(54.4667°N, 113.3833°W)
Time: 23:16:51
(UTC+00:00)

SR - Pass Details

Date: 24 May 2024
Orbit: 580 x 858 km, 66.7° (Epoch: 13 June)

Event Time Altitude Azimuth Distance (km) Brightness Sun altitude
Rises 07:24:45 0° 316° (NW) 2,957 ? -14.6°
Reaches altitude 10° 07:27:19 10° 327° (NNW) 2,005 ? -14.7°
Maximum altitude 07:31:19 31° 30° (NNE) 1,072 ? -14.7°
Drops below altitude 10° 07:35:08 10° 93° (E) 1,915 ? -14.6°
Sets 07:37:32 0° 104° (ESE) 2,801 ? -14.6°
